Year,Month,Day,Hour,Minute,Value (Times are PST for temperature in C)
2016,03,05,00,00,8.80
2016,03,05,00,01,8.80
2016,03,05,00,02,8.80
2016,03,05,00,03,8.80
2016,03,05,00,04,8.80
2016,03,05,00,05,8.80
2016,03,05,00,06,8.70
2016,03,05,00,07,8.80
2016,03,05,00,08,8.70
2016,03,05,00,09,8.80
2016,03,05,00,10,8.80
2016,03,05,00,11,8.80
2016,03,05,00,12,8.80
2016,03,05,00,13,8.80
2016,03,05,00,14,8.80
2016,03,05,00,15,8.80
2016,03,05,00,16,8.80
2016,03,05,00,17,8.80
2016,03,05,00,18,8.80
2016,03,05,00,19,8.80
2016,03,05,00,20,8.80
2016,03,05,00,21,8.80
2016,03,05,00,22,8.80
2016,03,05,00,23,8.80
2016,03,05,00,24,8.70
2016,03,05,00,25,8.70
2016,03,05,00,26,8.70
2016,03,05,00,27,8.70
2016,03,05,00,28,8.70
2016,03,05,00,29,8.70
2016,03,05,00,30,8.70
2016,03,05,00,31,8.70
2016,03,05,00,32,8.70
2016,03,05,00,33,8.70
2016,03,05,00,34,8.70
2016,03,05,00,35,8.70
2016,03,05,00,36,8.70
2016,03,05,00,37,8.70
2016,03,05,00,38,8.70
2016,03,05,00,39,8.70
2016,03,05,00,40,8.60
2016,03,05,00,41,8.60
2016,03,05,00,42,8.60
2016,03,05,00,43,8.60
2016,03,05,00,44,8.60
2016,03,05,00,45,8.60
2016,03,05,00,46,8.60
2016,03,05,00,47,8.60
2016,03,05,00,48,8.60
2016,03,05,00,49,8.60
2016,03,05,00,50,8.60
2016,03,05,00,51,8.60
2016,03,05,00,52,8.60
2016,03,05,00,53,8.60
2016,03,05,00,54,8.60
2016,03,05,00,55,8.60
2016,03,05,00,56,8.60
2016,03,05,00,57,8.60
2016,03,05,00,58,8.60
2016,03,05,00,59,8.60
2016,03,05,01,00,8.60
2016,03,05,01,01,8.60
2016,03,05,01,02,8.60
2016,03,05,01,03,8.60
2016,03,05,01,04,8.60
2016,03,05,01,05,8.60
2016,03,05,01,06,8.60
2016,03,05,01,07,8.60
2016,03,05,01,08,8.60
2016,03,05,01,09,8.60
2016,03,05,01,10,8.60
2016,03,05,01,11,8.60
2016,03,05,01,12,8.60
2016,03,05,01,13,8.60
2016,03,05,01,14,8.60
2016,03,05,01,15,8.60
2016,03,05,01,16,8.60
2016,03,05,01,17,8.60
2016,03,05,01,18,8.60
2016,03,05,01,19,8.60
2016,03,05,01,20,8.60
2016,03,05,01,21,8.60
2016,03,05,01,22,8.60
2016,03,05,01,23,8.60
2016,03,05,01,24,8.60
2016,03,05,01,25,8.60
2016,03,05,01,26,8.60
2016,03,05,01,27,8.60
2016,03,05,01,28,8.60
2016,03,05,01,29,8.60
2016,03,05,01,30,8.60
2016,03,05,01,31,8.60
2016,03,05,01,32,8.60
2016,03,05,01,33,8.60
2016,03,05,01,34,8.60
2016,03,05,01,35,8.60
2016,03,05,01,36,8.60
2016,03,05,01,37,8.60
2016,03,05,01,38,8.60
2016,03,05,01,39,8.60
2016,03,05,01,40,8.60
2016,03,05,01,41,8.60
2016,03,05,01,42,8.60
2016,03,05,01,43,8.60
2016,03,05,01,44,8.60
2016,03,05,01,45,8.50
2016,03,05,01,46,8.50
2016,03,05,01,47,8.50
2016,03,05,01,48,8.50
2016,03,05,01,49,8.50
2016,03,05,01,50,8.50
2016,03,05,01,51,8.50
2016,03,05,01,52,8.50
2016,03,05,01,53,8.50
2016,03,05,01,54,8.50
2016,03,05,01,55,8.50
2016,03,05,01,56,8.50
2016,03,05,01,57,8.50
2016,03,05,01,58,8.50
2016,03,05,01,59,8.50
2016,03,05,02,00,8.50
2016,03,05,02,01,8.50
2016,03,05,02,02,8.50
2016,03,05,02,03,8.50
2016,03,05,02,04,8.40
2016,03,05,02,05,8.40
2016,03,05,02,06,8.40
2016,03,05,02,07,8.40
2016,03,05,02,08,8.40
2016,03,05,02,09,8.40
2016,03,05,02,10,8.40
2016,03,05,02,11,8.40
2016,03,05,02,12,8.40
2016,03,05,02,13,8.40
2016,03,05,02,14,8.40
2016,03,05,02,15,8.40
2016,03,05,02,16,8.40
2016,03,05,02,17,8.40
2016,03,05,02,18,8.40
2016,03,05,02,19,8.40
2016,03,05,02,20,8.40
2016,03,05,02,21,8.40
2016,03,05,02,22,8.40
2016,03,05,02,23,8.40
2016,03,05,02,24,8.40
2016,03,05,02,25,8.40
2016,03,05,02,26,8.40
2016,03,05,02,27,8.40
2016,03,05,02,28,8.40
2016,03,05,02,29,8.40
2016,03,05,02,30,8.40
2016,03,05,02,31,8.40
2016,03,05,02,32,8.40
2016,03,05,02,33,8.40
2016,03,05,02,34,8.40
2016,03,05,02,35,8.40
2016,03,05,02,36,8.40
2016,03,05,02,37,8.40
2016,03,05,02,38,8.40
2016,03,05,02,39,8.40
2016,03,05,02,40,8.40
2016,03,05,02,41,8.40
2016,03,05,02,42,8.40
2016,03,05,02,43,8.40
2016,03,05,02,44,8.40
2016,03,05,02,45,8.40
2016,03,05,02,46,8.40
2016,03,05,02,47,8.40
2016,03,05,02,48,8.40
2016,03,05,02,49,8.40
2016,03,05,02,50,8.30
2016,03,05,02,51,8.30
2016,03,05,02,52,8.30
2016,03,05,02,53,8.30
2016,03,05,02,54,8.30
2016,03,05,02,55,8.30
2016,03,05,02,56,8.30
2016,03,05,02,57,8.30
2016,03,05,02,58,8.30
2016,03,05,02,59,8.30
2016,03,05,03,00,8.30
2016,03,05,03,01,8.30
2016,03,05,03,02,8.30
2016,03,05,03,03,8.30
2016,03,05,03,04,8.30
2016,03,05,03,05,8.30
2016,03,05,03,06,8.30
2016,03,05,03,07,8.30
2016,03,05,03,08,8.30
2016,03,05,03,09,8.30
2016,03,05,03,10,8.30
2016,03,05,03,11,8.30
2016,03,05,03,12,8.30
2016,03,05,03,13,8.30
2016,03,05,03,14,8.30
2016,03,05,03,15,8.30
2016,03,05,03,16,8.30
2016,03,05,03,17,8.30
2016,03,05,03,18,8.30
2016,03,05,03,19,8.30
2016,03,05,03,20,8.30
2016,03,05,03,21,8.30
2016,03,05,03,22,8.30
2016,03,05,03,23,8.30
2016,03,05,03,24,8.30
2016,03,05,03,25,8.30
2016,03,05,03,26,8.30
2016,03,05,03,27,8.30
2016,03,05,03,28,8.30
2016,03,05,03,29,8.30
2016,03,05,03,30,8.30
2016,03,05,03,31,8.40
2016,03,05,03,32,8.40
2016,03,05,03,33,8.50
2016,03,05,03,34,8.50
2016,03,05,03,35,8.60
2016,03,05,03,36,8.60
2016,03,05,03,37,8.60
2016,03,05,03,38,8.60
2016,03,05,03,39,8.70
2016,03,05,03,40,8.70
2016,03,05,03,41,8.70
2016,03,05,03,42,8.70
2016,03,05,03,43,8.70
2016,03,05,03,44,8.70
2016,03,05,03,45,8.60
2016,03,05,03,46,8.60
2016,03,05,03,47,8.60
2016,03,05,03,48,8.60
2016,03,05,03,49,8.60
2016,03,05,03,50,8.60
2016,03,05,03,51,8.70
2016,03,05,03,52,8.70
2016,03,05,03,53,8.70
2016,03,05,03,54,8.70
2016,03,05,03,55,8.70
2016,03,05,03,56,8.70
2016,03,05,03,57,8.80
2016,03,05,03,58,8.80
2016,03,05,03,59,8.80
2016,03,05,04,00,8.80
2016,03,05,04,01,8.80
2016,03,05,04,02,8.80
2016,03,05,04,03,8.90
2016,03,05,04,04,8.90
2016,03,05,04,05,8.90
2016,03,05,04,06,8.90
2016,03,05,04,07,8.90
2016,03,05,04,08,8.90
2016,03,05,04,09,8.90
2016,03,05,04,10,8.90
2016,03,05,04,11,8.90
2016,03,05,04,12,8.90
2016,03,05,04,13,8.90
2016,03,05,04,14,9.00
2016,03,05,04,15,9.00
2016,03,05,04,16,9.00
2016,03,05,04,17,9.00
2016,03,05,04,18,9.00
2016,03,05,04,19,9.00
2016,03,05,04,20,9.00
2016,03,05,04,21,9.00
2016,03,05,04,22,9.00
2016,03,05,04,23,9.00
2016,03,05,04,24,9.10
2016,03,05,04,25,9.10
2016,03,05,04,26,9.10
2016,03,05,04,27,9.10
2016,03,05,04,28,9.10
2016,03,05,04,29,9.10
2016,03,05,04,30,9.10
2016,03,05,04,31,9.10
2016,03,05,04,32,9.10
2016,03,05,04,33,9.20
2016,03,05,04,34,9.20
2016,03,05,04,35,9.20
2016,03,05,04,36,9.20
2016,03,05,04,37,9.20
2016,03,05,04,38,9.20
2016,03,05,04,39,9.20
2016,03,05,04,40,9.20
2016,03,05,04,41,9.20
2016,03,05,04,42,9.20
2016,03,05,04,43,9.20
2016,03,05,04,44,9.20
2016,03,05,04,45,9.20
2016,03,05,04,46,9.20
2016,03,05,04,47,9.20
2016,03,05,04,48,9.20
2016,03,05,04,49,9.20
2016,03,05,04,50,9.20
2016,03,05,04,51,9.20
2016,03,05,04,52,9.20
2016,03,05,04,53,9.20
2016,03,05,04,54,9.20
2016,03,05,04,55,9.20
2016,03,05,04,56,9.20
2016,03,05,04,57,9.20
2016,03,05,04,58,9.20
2016,03,05,04,59,9.20
2016,03,05,05,00,9.10
2016,03,05,05,01,9.20
2016,03,05,05,02,9.20
2016,03,05,05,03,9.20
2016,03,05,05,04,9.20
2016,03,05,05,05,9.20
2016,03,05,05,06,9.20
2016,03,05,05,07,9.20
2016,03,05,05,08,9.20
2016,03,05,05,09,9.20
2016,03,05,05,10,9.20
2016,03,05,05,11,9.20
2016,03,05,05,12,9.20
2016,03,05,05,13,9.20
2016,03,05,05,14,9.20
2016,03,05,05,15,9.20
2016,03,05,05,16,9.20
2016,03,05,05,17,9.20
2016,03,05,05,18,9.20
2016,03,05,05,19,9.10
2016,03,05,05,20,9.10
2016,03,05,05,21,9.10
2016,03,05,05,22,9.20
2016,03,05,05,23,9.20
2016,03,05,05,24,9.20
2016,03,05,05,25,9.10
2016,03,05,05,26,9.10
2016,03,05,05,27,9.10
2016,03,05,05,28,9.10
2016,03,05,05,29,9.10
2016,03,05,05,30,9.10
2016,03,05,05,31,9.10
2016,03,05,05,32,9.10
2016,03,05,05,33,9.10
2016,03,05,05,34,9.10
2016,03,05,05,35,9.10
2016,03,05,05,36,9.10
2016,03,05,05,37,9.10
2016,03,05,05,38,9.10
2016,03,05,05,39,9.10
2016,03,05,05,40,9.10
2016,03,05,05,41,9.10
2016,03,05,05,42,9.10
2016,03,05,05,43,9.10
2016,03,05,05,44,9.10
2016,03,05,05,45,9.10
2016,03,05,05,46,9.10
2016,03,05,05,47,9.10
2016,03,05,05,48,9.00
2016,03,05,05,49,8.90
2016,03,05,05,50,8.90
2016,03,05,05,51,8.80
2016,03,05,05,52,8.80
2016,03,05,05,53,8.70
2016,03,05,05,54,8.70
2016,03,05,05,55,8.70
2016,03,05,05,56,8.70
2016,03,05,05,57,8.70
2016,03,05,05,58,8.70
2016,03,05,05,59,8.70
2016,03,05,06,00,8.70
2016,03,05,06,01,8.70
2016,03,05,06,02,8.70
2016,03,05,06,03,8.70
2016,03,05,06,04,8.60
2016,03,05,06,05,8.60
2016,03,05,06,06,8.60
2016,03,05,06,07,8.60
2016,03,05,06,08,8.50
2016,03,05,06,09,8.50
2016,03,05,06,10,8.50
2016,03,05,06,11,8.40
2016,03,05,06,12,8.40
2016,03,05,06,13,8.50
2016,03,05,06,14,8.50
2016,03,05,06,15,8.60
2016,03,05,06,16,8.60
2016,03,05,06,17,8.60
2016,03,05,06,18,8.60
2016,03,05,06,19,8.70
2016,03,05,06,20,8.70
2016,03,05,06,21,8.70
2016,03,05,06,22,8.70
2016,03,05,06,23,8.80
2016,03,05,06,24,8.80
2016,03,05,06,25,8.80
2016,03,05,06,26,8.80
2016,03,05,06,27,8.80
2016,03,05,06,28,8.80
2016,03,05,06,29,8.80
2016,03,05,06,30,8.80
2016,03,05,06,31,8.80
2016,03,05,06,32,8.90
2016,03,05,06,33,8.80
2016,03,05,06,34,8.70
2016,03,05,06,35,8.70
2016,03,05,06,36,8.60
2016,03,05,06,37,8.50
2016,03,05,06,38,8.40
2016,03,05,06,39,8.40
2016,03,05,06,40,8.40
2016,03,05,06,41,8.40
2016,03,05,06,42,8.40
2016,03,05,06,43,8.40
2016,03,05,06,44,8.40
2016,03,05,06,45,8.40
2016,03,05,06,46,8.40
2016,03,05,06,47,8.40
2016,03,05,06,48,8.40
2016,03,05,06,49,8.40
2016,03,05,06,50,8.40
2016,03,05,06,51,8.30
2016,03,05,06,52,8.30
2016,03,05,06,53,8.30
2016,03,05,06,54,8.30
2016,03,05,06,55,8.30
2016,03,05,06,56,8.30
2016,03,05,06,57,8.30
2016,03,05,06,58,8.20
2016,03,05,06,59,8.20
2016,03,05,07,00,8.20
2016,03,05,07,01,8.20
2016,03,05,07,02,8.20
2016,03,05,07,03,8.20
2016,03,05,07,04,8.10
2016,03,05,07,05,8.10
2016,03,05,07,06,8.10
2016,03,05,07,07,8.10
2016,03,05,07,08,8.10
2016,03,05,07,09,8.10
2016,03,05,07,10,8.10
2016,03,05,07,11,8.10
2016,03,05,07,12,8.20
2016,03,05,07,13,8.20
2016,03,05,07,14,8.20
2016,03,05,07,15,8.20
2016,03,05,07,16,8.20
2016,03,05,07,17,8.30
2016,03,05,07,18,8.30
2016,03,05,07,19,8.40
2016,03,05,07,20,8.40
2016,03,05,07,21,8.50
2016,03,05,07,22,8.50
2016,03,05,07,23,8.60
2016,03,05,07,24,8.60
2016,03,05,07,25,8.60
2016,03,05,07,26,8.60
2016,03,05,07,27,8.60
2016,03,05,07,28,8.60
2016,03,05,07,29,8.50
2016,03,05,07,30,8.50
2016,03,05,07,31,8.40
2016,03,05,07,32,8.40
2016,03,05,07,33,8.40
2016,03,05,07,34,8.40
2016,03,05,07,35,8.40
2016,03,05,07,36,8.50
2016,03,05,07,37,8.50
2016,03,05,07,38,8.60
2016,03,05,07,39,8.60
2016,03,05,07,40,8.70
2016,03,05,07,41,8.70
2016,03,05,07,42,8.80
2016,03,05,07,43,8.80
2016,03,05,07,44,8.90
2016,03,05,07,45,8.90
2016,03,05,07,46,8.90
2016,03,05,07,47,8.90
2016,03,05,07,48,8.90
2016,03,05,07,49,9.00
2016,03,05,07,50,9.10
2016,03,05,07,51,9.10
2016,03,05,07,52,9.10
2016,03,05,07,53,9.10
2016,03,05,07,54,9.10
2016,03,05,07,55,9.10
2016,03,05,07,56,9.10
2016,03,05,07,57,9.10
2016,03,05,07,58,9.10
2016,03,05,07,59,9.20
2016,03,05,08,00,9.20
2016,03,05,08,01,9.20
2016,03,05,08,02,9.30
2016,03,05,08,03,9.30
2016,03,05,08,04,9.30
2016,03,05,08,05,9.40
2016,03,05,08,06,9.40
2016,03,05,08,07,9.50
2016,03,05,08,08,9.50
2016,03,05,08,09,9.50
2016,03,05,08,10,9.60
2016,03,05,08,11,9.60
2016,03,05,08,12,9.60
2016,03,05,08,13,9.60
2016,03,05,08,14,9.60
2016,03,05,08,15,9.60
2016,03,05,08,16,9.60
2016,03,05,08,17,9.70
2016,03,05,08,18,9.70
2016,03,05,08,19,9.70
2016,03,05,08,20,9.70
2016,03,05,08,21,9.70
2016,03,05,08,22,9.70
2016,03,05,08,23,9.70
2016,03,05,08,24,9.70
2016,03,05,08,25,9.70
2016,03,05,08,26,9.70
2016,03,05,08,27,9.70
2016,03,05,08,28,9.70
2016,03,05,08,29,9.70
2016,03,05,08,30,9.70
2016,03,05,08,31,9.70
2016,03,05,08,32,9.70
2016,03,05,08,33,9.70
2016,03,05,08,34,9.70
2016,03,05,08,35,9.70
2016,03,05,08,36,9.80
2016,03,05,08,37,9.80
2016,03,05,08,38,9.80
2016,03,05,08,39,9.90
2016,03,05,08,40,10.00
2016,03,05,08,41,10.10
2016,03,05,08,42,10.10
2016,03,05,08,43,10.20
2016,03,05,08,44,10.30
2016,03,05,08,45,10.30
2016,03,05,08,46,10.30
2016,03,05,08,47,10.30
2016,03,05,08,48,10.30
2016,03,05,08,49,10.40
2016,03,05,08,50,10.40
2016,03,05,08,51,10.50
2016,03,05,08,52,10.50
2016,03,05,08,53,10.60
2016,03,05,08,54,10.60
2016,03,05,08,55,10.60
2016,03,05,08,56,10.60
2016,03,05,08,57,10.60
2016,03,05,08,58,10.60
2016,03,05,08,59,10.60
2016,03,05,09,00,10.70
2016,03,05,09,01,10.70
2016,03,05,09,02,10.70
2016,03,05,09,03,10.60
2016,03,05,09,04,10.60
2016,03,05,09,05,10.60
2016,03,05,09,06,10.70
2016,03,05,09,07,10.80
2016,03,05,09,08,10.80
2016,03,05,09,09,10.90
2016,03,05,09,10,11.00
2016,03,05,09,11,11.10
2016,03,05,09,12,11.20
2016,03,05,09,13,11.30
2016,03,05,09,14,11.30
2016,03,05,09,15,11.40
2016,03,05,09,16,11.40
2016,03,05,09,17,11.40
2016,03,05,09,18,11.40
2016,03,05,09,19,11.40
2016,03,05,09,20,11.50
2016,03,05,09,21,11.50
2016,03,05,09,22,11.60
2016,03,05,09,23,11.70
2016,03,05,09,24,11.70
2016,03,05,09,25,11.80
2016,03,05,09,26,11.90
2016,03,05,09,27,11.90
2016,03,05,09,28,12.00
2016,03,05,09,29,12.10
2016,03,05,09,30,12.10
2016,03,05,09,31,12.20
2016,03,05,09,32,12.20
2016,03,05,09,33,12.30
2016,03,05,09,34,12.30
2016,03,05,09,35,12.30
2016,03,05,09,36,12.30
2016,03,05,09,37,12.40
2016,03,05,09,38,12.40
2016,03,05,09,39,12.50
2016,03,05,09,40,12.50
2016,03,05,09,41,12.50
2016,03,05,09,42,12.50
2016,03,05,09,43,12.60
2016,03,05,09,44,12.70
2016,03,05,09,45,12.70
2016,03,05,09,46,12.70
2016,03,05,09,47,12.70
2016,03,05,09,48,12.80
2016,03,05,09,49,12.80
2016,03,05,09,50,12.80
2016,03,05,09,51,12.80
2016,03,05,09,52,12.80
2016,03,05,09,53,12.90
2016,03,05,09,54,12.90
2016,03,05,09,55,12.90
2016,03,05,09,56,13.00
2016,03,05,09,57,12.90
2016,03,05,09,58,12.80
2016,03,05,09,59,12.80
2016,03,05,10,00,12.80
2016,03,05,10,01,12.80
2016,03,05,10,02,12.90
2016,03,05,10,03,12.80
2016,03,05,10,04,12.70
2016,03,05,10,05,12.70
2016,03,05,10,06,12.70
2016,03,05,10,07,12.80
2016,03,05,10,08,12.80
2016,03,05,10,09,12.70
2016,03,05,10,10,12.70
2016,03,05,10,11,12.70
2016,03,05,10,12,12.60
2016,03,05,10,13,12.60
2016,03,05,10,14,12.50
2016,03,05,10,15,12.50
2016,03,05,10,16,12.50
2016,03,05,10,17,12.50
2016,03,05,10,18,12.50
2016,03,05,10,19,12.50
2016,03,05,10,20,12.40
2016,03,05,10,21,12.50
2016,03,05,10,22,12.50
2016,03,05,10,23,12.50
2016,03,05,10,24,12.60
2016,03,05,10,25,12.60
2016,03,05,10,26,12.60
2016,03,05,10,27,12.60
2016,03,05,10,28,12.60
2016,03,05,10,29,12.60
2016,03,05,10,30,12.70
2016,03,05,10,31,12.70
2016,03,05,10,32,12.70
2016,03,05,10,33,12.70
2016,03,05,10,34,12.70
2016,03,05,10,35,12.80
2016,03,05,10,36,12.80
2016,03,05,10,37,12.80
2016,03,05,10,38,12.80
2016,03,05,10,39,12.80
2016,03,05,10,40,12.90
2016,03,05,10,41,12.90
2016,03,05,10,42,12.90
2016,03,05,10,43,13.00
2016,03,05,10,44,13.00
2016,03,05,10,45,13.10
2016,03,05,10,46,13.10
2016,03,05,10,47,13.10
2016,03,05,10,48,13.10
2016,03,05,10,49,13.20
2016,03,05,10,50,13.20
2016,03,05,10,51,13.20
2016,03,05,10,52,13.30
2016,03,05,10,53,13.30
2016,03,05,10,54,13.40
2016,03,05,10,55,13.40
2016,03,05,10,56,13.50
2016,03,05,10,57,13.50
2016,03,05,10,58,13.60
2016,03,05,10,59,13.60
2016,03,05,11,00,13.70
2016,03,05,11,01,13.80
2016,03,05,11,02,13.80
2016,03,05,11,03,13.80
2016,03,05,11,04,13.90
2016,03,05,11,05,14.00
2016,03,05,11,06,14.00
2016,03,05,11,07,14.00
2016,03,05,11,08,14.10
2016,03,05,11,09,14.10
2016,03,05,11,10,14.20
2016,03,05,11,11,14.20
2016,03,05,11,12,14.10
2016,03,05,11,13,14.10
2016,03,05,11,14,14.00
2016,03,05,11,15,14.00
2016,03,05,11,16,13.90
2016,03,05,11,17,13.80
2016,03,05,11,18,13.80
2016,03,05,11,19,13.80
2016,03,05,11,20,13.80
2016,03,05,11,21,13.80
2016,03,05,11,22,13.90
2016,03,05,11,23,13.90
2016,03,05,11,24,13.80
2016,03,05,11,25,13.80
2016,03,05,11,26,13.70
2016,03,05,11,27,13.70
2016,03,05,11,28,13.70
2016,03,05,11,29,13.80
2016,03,05,11,30,13.80
2016,03,05,11,31,13.90
2016,03,05,11,32,13.90
2016,03,05,11,33,13.90
2016,03,05,11,34,14.00
2016,03,05,11,35,14.00
2016,03,05,11,36,14.00
2016,03,05,11,37,14.10
2016,03,05,11,38,14.20
2016,03,05,11,39,14.20
2016,03,05,11,40,14.30
2016,03,05,11,41,14.30
2016,03,05,11,42,14.30
2016,03,05,11,43,14.40
2016,03,05,11,44,14.40
2016,03,05,11,45,14.50
2016,03,05,11,46,14.60
2016,03,05,11,47,14.70
2016,03,05,11,48,14.80
2016,03,05,11,49,14.90
2016,03,05,11,50,14.90
2016,03,05,11,51,14.80
2016,03,05,11,52,14.70
2016,03,05,11,53,14.60
2016,03,05,11,54,14.60
2016,03,05,11,55,14.60
2016,03,05,11,56,14.50
2016,03,05,11,57,14.40
2016,03,05,11,58,14.40
2016,03,05,11,59,14.50
2016,03,05,12,00,14.50
2016,03,05,12,01,14.60
2016,03,05,12,02,14.70
2016,03,05,12,03,14.70
2016,03,05,12,04,14.80
2016,03,05,12,05,14.90
2016,03,05,12,06,15.00
2016,03,05,12,07,15.00
2016,03,05,12,08,15.00
2016,03,05,12,09,15.00
2016,03,05,12,10,15.10
2016,03,05,12,11,15.10
2016,03,05,12,12,15.10
2016,03,05,12,13,15.10
2016,03,05,12,14,15.10
2016,03,05,12,15,15.20
2016,03,05,12,16,15.20
2016,03,05,12,17,15.30
2016,03,05,12,18,15.30
2016,03,05,12,19,15.40
2016,03,05,12,20,15.40
2016,03,05,12,21,15.30
2016,03,05,12,22,15.30
2016,03,05,12,23,15.20
2016,03,05,12,24,15.20
2016,03,05,12,25,15.10
2016,03,05,12,26,15.00
2016,03,05,12,27,15.00
2016,03,05,12,28,15.00
2016,03,05,12,29,15.00
2016,03,05,12,30,15.00
2016,03,05,12,31,15.00
2016,03,05,12,32,15.00
2016,03,05,12,33,15.00
2016,03,05,12,34,14.90
2016,03,05,12,35,15.00
2016,03,05,12,36,15.00
2016,03,05,12,37,15.00
2016,03,05,12,38,15.00
2016,03,05,12,39,15.00
2016,03,05,12,40,15.00
2016,03,05,12,41,15.10
2016,03,05,12,42,15.20
2016,03,05,12,43,15.30
2016,03,05,12,44,15.30
2016,03,05,12,45,15.30
2016,03,05,12,46,15.20
2016,03,05,12,47,15.20
2016,03,05,12,48,15.20
2016,03,05,12,49,15.10
2016,03,05,12,50,15.00
2016,03,05,12,51,15.10
2016,03,05,12,52,15.20
2016,03,05,12,53,15.20
2016,03,05,12,54,15.30
2016,03,05,12,55,15.30
2016,03,05,12,56,15.20
2016,03,05,12,57,15.20
2016,03,05,12,58,15.20
2016,03,05,12,59,15.20
2016,03,05,13,00,15.20
2016,03,05,13,01,15.20
2016,03,05,13,02,15.10
2016,03,05,13,03,15.10
2016,03,05,13,04,15.20
2016,03,05,13,05,15.10
2016,03,05,13,06,15.10
2016,03,05,13,07,15.00
2016,03,05,13,08,15.00
2016,03,05,13,09,15.00
2016,03,05,13,10,15.00
2016,03,05,13,11,14.80
2016,03,05,13,12,14.70
2016,03,05,13,13,14.60
2016,03,05,13,14,14.50
2016,03,05,13,15,14.50
2016,03,05,13,16,14.40
2016,03,05,13,17,14.40
2016,03,05,13,18,14.40
2016,03,05,13,19,14.40
2016,03,05,13,20,14.40
2016,03,05,13,21,14.40
2016,03,05,13,22,14.40
2016,03,05,13,23,14.40
2016,03,05,13,24,14.50
2016,03,05,13,25,14.60
2016,03,05,13,26,14.60
2016,03,05,13,27,14.70
2016,03,05,13,28,14.70
2016,03,05,13,29,14.70
2016,03,05,13,30,14.70
2016,03,05,13,31,14.70
2016,03,05,13,32,14.80
2016,03,05,13,33,14.80
2016,03,05,13,34,14.90
2016,03,05,13,35,14.90
2016,03,05,13,36,14.90
2016,03,05,13,37,14.90
2016,03,05,13,38,15.00
2016,03,05,13,39,15.00
2016,03,05,13,40,15.00
2016,03,05,13,41,15.00
2016,03,05,13,42,15.00
2016,03,05,13,43,14.90
2016,03,05,13,44,14.80
2016,03,05,13,45,14.70
2016,03,05,13,46,14.70
2016,03,05,13,47,14.70
2016,03,05,13,48,14.60
2016,03,05,13,49,14.60
2016,03,05,13,50,14.60
2016,03,05,13,51,14.60
2016,03,05,13,52,14.60
2016,03,05,13,53,14.60
2016,03,05,13,54,14.60
2016,03,05,13,55,14.70
2016,03,05,13,56,14.60
2016,03,05,13,57,14.60
2016,03,05,13,58,14.60
2016,03,05,13,59,14.50
2016,03,05,14,00,14.50
2016,03,05,14,01,14.50
2016,03,05,14,02,14.40
2016,03,05,14,03,14.40
2016,03,05,14,04,14.40
2016,03,05,14,05,14.30
2016,03,05,14,06,14.30
2016,03,05,14,07,14.30
2016,03,05,14,08,14.30
2016,03,05,14,09,14.30
2016,03,05,14,10,14.30
2016,03,05,14,11,14.30
2016,03,05,14,12,14.30
2016,03,05,14,13,14.20
2016,03,05,14,14,14.20
2016,03,05,14,15,14.30
2016,03,05,14,16,14.30
2016,03,05,14,17,14.30
2016,03,05,14,18,14.40
2016,03,05,14,19,14.50
2016,03,05,14,20,14.60
2016,03,05,14,21,14.70
2016,03,05,14,22,14.80
2016,03,05,14,23,14.90
2016,03,05,14,24,15.00
2016,03,05,14,25,15.00
2016,03,05,14,26,14.90
2016,03,05,14,27,14.80
2016,03,05,14,28,14.80
2016,03,05,14,29,14.70
2016,03,05,14,30,14.60
2016,03,05,14,31,14.50
2016,03,05,14,32,14.40
2016,03,05,14,33,14.40
2016,03,05,14,34,14.30
2016,03,05,14,35,14.30
2016,03,05,14,36,14.30
2016,03,05,14,37,14.30
2016,03,05,14,38,14.30
2016,03,05,14,39,14.20
2016,03,05,14,40,14.20
2016,03,05,14,41,14.10
2016,03,05,14,42,14.10
2016,03,05,14,43,14.00
2016,03,05,14,44,13.90
2016,03,05,14,45,13.90
2016,03,05,14,46,13.80
2016,03,05,14,47,13.80
2016,03,05,14,48,13.80
2016,03,05,14,49,13.80
2016,03,05,14,50,13.90
2016,03,05,14,51,13.80
2016,03,05,14,52,13.80
2016,03,05,14,53,13.80
2016,03,05,14,54,13.80
2016,03,05,14,55,13.70
2016,03,05,14,56,13.70
2016,03,05,14,57,13.70
2016,03,05,14,58,13.70
2016,03,05,14,59,13.80
2016,03,05,15,00,13.80
2016,03,05,15,01,13.80
2016,03,05,15,02,13.90
2016,03,05,15,03,13.90
2016,03,05,15,04,13.90
2016,03,05,15,05,13.90
2016,03,05,15,06,14.00
2016,03,05,15,07,14.00
2016,03,05,15,08,14.00
2016,03,05,15,09,14.00
2016,03,05,15,10,14.00
2016,03,05,15,11,14.00
2016,03,05,15,12,14.00
2016,03,05,15,13,14.00
2016,03,05,15,14,14.00
2016,03,05,15,15,14.00
2016,03,05,15,16,14.00
2016,03,05,15,17,14.00
2016,03,05,15,18,14.10
2016,03,05,15,19,14.10
2016,03,05,15,20,14.10
2016,03,05,15,21,14.10
2016,03,05,15,22,14.10
2016,03,05,15,23,14.10
2016,03,05,15,24,14.20
2016,03,05,15,25,14.20
2016,03,05,15,26,14.30
2016,03,05,15,27,14.30
2016,03,05,15,28,14.40
2016,03,05,15,29,14.40
2016,03,05,15,30,14.50
2016,03,05,15,31,14.60
2016,03,05,15,32,14.70
2016,03,05,15,33,14.70
2016,03,05,15,34,14.80
2016,03,05,15,35,14.80
2016,03,05,15,36,14.80
2016,03,05,15,37,14.80
2016,03,05,15,38,14.80
2016,03,05,15,39,14.80
2016,03,05,15,40,14.90
2016,03,05,15,41,14.90
2016,03,05,15,42,14.90
2016,03,05,15,43,15.00
2016,03,05,15,44,15.00
2016,03,05,15,45,15.00
2016,03,05,15,46,15.00
2016,03,05,15,47,15.00
2016,03,05,15,48,15.00
2016,03,05,15,49,15.00
2016,03,05,15,50,15.00
2016,03,05,15,51,15.00
2016,03,05,15,52,15.00
2016,03,05,15,53,15.00
2016,03,05,15,54,15.00
2016,03,05,15,55,15.00
2016,03,05,15,56,14.90
2016,03,05,15,57,14.90
2016,03,05,15,58,14.80
2016,03,05,15,59,14.80
2016,03,05,16,00,14.80
2016,03,05,16,01,14.80
2016,03,05,16,02,14.80
2016,03,05,16,03,14.70
2016,03,05,16,04,14.70
2016,03,05,16,05,14.70
2016,03,05,16,06,14.60
2016,03,05,16,07,14.60
2016,03,05,16,08,14.60
2016,03,05,16,09,14.60
2016,03,05,16,10,14.60
2016,03,05,16,11,14.50
2016,03,05,16,12,14.50
2016,03,05,16,13,14.50
2016,03,05,16,14,14.40
2016,03,05,16,15,14.40
2016,03,05,16,16,14.30
2016,03,05,16,17,14.30
2016,03,05,16,18,14.20
2016,03,05,16,19,14.20
2016,03,05,16,20,14.20
2016,03,05,16,21,14.20
2016,03,05,16,22,14.10
2016,03,05,16,23,14.10
2016,03,05,16,24,14.10
2016,03,05,16,25,14.00
2016,03,05,16,26,14.00
2016,03,05,16,27,14.00
2016,03,05,16,28,13.90
2016,03,05,16,29,13.90
2016,03,05,16,30,13.90
2016,03,05,16,31,13.90
2016,03,05,16,32,13.90
2016,03,05,16,33,13.90
2016,03,05,16,34,13.90
2016,03,05,16,35,13.90
2016,03,05,16,36,13.90
2016,03,05,16,37,13.90
2016,03,05,16,38,13.90
2016,03,05,16,39,13.80
2016,03,05,16,40,13.70
2016,03,05,16,41,13.70
2016,03,05,16,42,13.60
2016,03,05,16,43,13.60
2016,03,05,16,44,13.60
2016,03,05,16,45,13.60
2016,03,05,16,46,13.60
2016,03,05,16,47,13.60
2016,03,05,16,48,13.60
2016,03,05,16,49,13.60
2016,03,05,16,50,13.50
2016,03,05,16,51,13.50
2016,03,05,16,52,13.40
2016,03,05,16,53,13.40
2016,03,05,16,54,13.40
2016,03,05,16,55,13.30
2016,03,05,16,56,13.30
2016,03,05,16,57,13.30
2016,03,05,16,58,13.30
2016,03,05,16,59,13.20
2016,03,05,17,00,13.20
2016,03,05,17,01,13.20
2016,03,05,17,02,13.20
2016,03,05,17,03,13.20
2016,03,05,17,04,13.20
2016,03,05,17,05,13.20
2016,03,05,17,06,13.30
2016,03,05,17,07,13.30
2016,03,05,17,08,13.30
2016,03,05,17,09,13.20
2016,03,05,17,10,13.20
2016,03,05,17,11,13.20
2016,03,05,17,12,13.10
2016,03,05,17,13,13.10
2016,03,05,17,14,13.00
2016,03,05,17,15,13.00
2016,03,05,17,16,12.90
2016,03,05,17,17,12.80
2016,03,05,17,18,12.80
2016,03,05,17,19,12.70
2016,03,05,17,20,12.70
2016,03,05,17,21,12.60
2016,03,05,17,22,12.60
2016,03,05,17,23,12.50
2016,03,05,17,24,12.50
2016,03,05,17,25,12.40
2016,03,05,17,26,12.30
2016,03,05,17,27,12.30
2016,03,05,17,28,12.30
2016,03,05,17,29,12.30
2016,03,05,17,30,12.30
2016,03,05,17,31,12.40
2016,03,05,17,32,12.40
2016,03,05,17,33,12.40
2016,03,05,17,34,12.40
2016,03,05,17,35,12.40
2016,03,05,17,36,12.40
2016,03,05,17,37,12.40
2016,03,05,17,38,12.40
2016,03,05,17,39,12.40
2016,03,05,17,40,12.30
2016,03,05,17,41,12.30
2016,03,05,17,42,12.20